Location: Unspecified
(0.0000°N, 0.0000°E)
Time: 21:14:02
(UTC+01:00)

USA 116 - Visible Passes

Search period start: 05 March 2015 00:00
Search period end: 15 March 2015 00:00
Orbit: 405 x 834 km, 97.9° (Epoch: 18 November)

Date Brightness Start Highest point End Pass type
(mag) Time Alt. Az. Time Alt. Az. Time Alt. Az.
05 Mar 4.6 05:11:05 10° SSE 05:15:18 60° E 05:15:18 60° E visible
06 Mar 4.1 05:25:28 10° S 05:30:01 86° W 05:30:21 77° NNW visible
07 Mar 4.3 05:40:03 10° S 05:44:32 55° W 05:45:26 47° WNW visible
08 Mar 7.1 04:21:22 10° ESE 04:23:26 13° ENE 04:23:32 13° ENE visible
08 Mar 4.8 05:54:50 10° SSW 05:59:06 35° W 06:00:33 29° WNW visible
09 Mar 6.6 04:34:30 10° ESE 04:37:57 20° ENE 04:38:43 20° ENE visible
09 Mar 5.3 06:09:53 10° SSW 06:13:42 23° W 06:15:44 18° WNW visible
10 Mar 6.0 04:48:14 10° SE 04:52:27 31° ENE 04:53:57 27° NE visible
10 Mar 5.8 06:25:20 10° SW 06:28:19 16° W 06:30:59 10° WNW visible
11 Mar 5.2 05:02:17 10° SSE 05:06:57 48° ENE 05:09:19 28° NNE visible
12 Mar 4.5 05:16:34 10° SSE 05:21:28 74° ENE 05:24:53 22° N visible
13 Mar 4.2 05:31:03 10° S 05:35:59 74° W 05:41:05 11° NNW visible
14 Mar 7.4 04:13:52 10° E 04:14:50 11° ENE 04:16:17 10° ENE visible
14 Mar 4.6 05:45:43 10° S 05:50:31 48° W 05:55:37 10° NNW visible
